FW0896 Weather Reports


time (UTC)temp
F
wind
direction
speed
knots
gust
knots
rain 1hr
in
rain 24hr
in
rain mn
in
humidity
%
barometer
mb
20260831131544 72 217 1.7 5.2 0.00 0.00 0.00 97 1009.3
20260831130038 72 213 1.7 4.3 0.00 0.00 0.00 98 1009.1
20260831124544 71 217 2.6 4.3 0.00 0.00 0.00 98 1009.0
20260831123029 71 235 3.5 5.2 0.00 0.00 0.00 98 1008.7
20260831121529 70 219 2.6 5.2 0.00 0.00 0.00 99 1008.5
20260831120047 68 185 1.7 6.1 0.00 0.00 0.00 98 1008.0
20260831114527 69 196 0.9 3.5 0.00 0.00 0.00 98 1008.0
20260831113027 68 188 0.9 1.7 0.00 0.00 0.00 98 1007.9
20260831111525 69 182 0.9 1.7 0.00 0.00 0.00 98 1007.8
20260831110027 69 195 1.7 4.3 0.00 0.00 0.00 98 1007.8
20260831104525 69 179 0.9 2.6 0.00 0.00 0.00 98 1007.7
20260831103025 69 182 0.0 0.0 0.00 0.00 0.00 98 1007.8
20260831101523 69 178 0.0 0.0 0.00 0.00 0.00 98 1007.7
20260831100021 69 174 0.0 0.0 0.00 0.00 0.00 98 1007.7
20260831094521 69 176 0.0 0.0 0.00 0.00 0.00 98 1008.0
20260831093021 69 173 0.0 0.0 0.00 0.00 0.00 98 1008.0
20260831091519 69 174 0.0 0.9 0.00 0.00 0.00 98 1007.9
20260831090019 69 176 0.9 1.7 0.00 0.00 0.00 98 1008.0
20260831084520 69 178 0.9 1.7 0.00 0.00 0.00 97 1008.0
20260831083016 69 179 0.9 1.7 0.00 0.00 0.00 98 1007.6
20260831081519 70 176 0.9 2.6 0.00 0.00 0.00 98 1007.6
20260831080028 70 172 0.9 2.6 0.00 0.00 0.00 97 1007.4
20260831074512 70 178 0.9 1.7 0.00 0.00 0.00 97 1007.5
20260831073010 70 179 0.9 2.6 0.00 0.00 0.00 97 1007.7
20260831071508 70 180 0.9 1.7 0.00 0.00 0.00 97 1007.8
20260831070012 70 172 0.0 2.6 0.00 0.00 0.00 97 1008.0
20260831064506 70 178 0.9 2.6 0.00 0.00 0.00 97 1008.0
20260831063007 70 177 0.9 2.6 0.00 0.00 0.00 96 1008.2
20260831061505 71 179 0.9 2.6 0.00 0.00 0.00 97 1008.2
20260831060004 71 171 0.9 2.6 0.00 0.00 0.00 96 1008.3
20260831054503 71 178 0.9 2.6 0.00 0.00 0.00 96 1008.4
20260831053003 71 172 0.0 1.7 0.00 0.00 0.00 96 1008.5
20260831051608 71 186 0.0 1.7 0.00 0.00 0.00 96 1008.6
20260831050056 71 184 0.0 2.6 0.00 0.00 0.00 96 1008.6
20260831044607 71 169 0.9 2.6 0.00 0.00 0.00 96 1008.6
20260831043056 71 169 0.9 2.6 0.00 0.00 0.00 95 1008.4
20260831041555 71 171 0.9 2.6 0.00 0.00 0.00 95 1008.4
20260831040055 71 177 0.9 2.6 0.00 0.00 0.00 95 1008.2
20260831034554 71 167 1.7 3.5 0.00 0.00 0.00 96 1008.2
20260831033053 71 186 1.7 4.3 0.00 0.00 0.00 95 1008.4
20260831031553 72 179 1.7 3.5 0.00 0.00 0.00 95 1008.5
20260831030052 72 190 1.7 4.3 0.00 0.00 0.00 95 1008.4
20260831024552 72 168 0.9 2.6 0.00 0.00 0.00 95 1008.6
20260831023051 72 169 0.9 2.6 0.00 0.00 0.00 94 1008.8
20260831021549 73 141 0.9 3.5 0.00 0.00 0.00 94 1008.7
20260831020053 73 188 0.9 2.6 0.00 0.00 0.00 93 1008.7
20260831014549 73 179 0.0 3.5 0.00 0.00 0.00 93 1008.5
20260831013103 74 182 0.9 3.5 0.00 0.00 0.00 92 1008.4
20260831011549 74 173 1.7 3.5 0.00 0.00 0.00 91 1008.4
20260831010052 75 160 0.9 3.5 0.00 0.00 0.00 89 1008.2
20260831004547 75 170 0.9 3.5 0.00 0.00 0.00 87 1008.2
20260831003046 76 171 0.9 3.5 0.00 0.00 0.00 86 1008.1
20260831001545 77 181 1.7 4.3 0.00 0.00 0.00 85 1008.0
20260831000045 77 176 0.9 3.5 0.00 0.00 0.00 83 1007.9
20260830234552 78 179 2.6 7.0 0.00 0.00 0.00 83 1007.8
20260830233044 78 163 1.7 7.0 0.00 0.00 0.00 82 1007.8
20260830231544 79 169 1.7 4.3 0.00 0.00 0.00 81 1007.9
20260830230043 80 184 1.7 5.2 0.00 0.00 0.00 81 1007.7
20260830224542 80 145 2.6 6.1 0.00 0.00 0.00 81 1007.6
20260830223056 80 157 1.7 6.1 0.00 0.00 0.00 80 1007.7
20260830221547 80 167 1.7 5.2 0.00 0.00 0.00 78 1007.6
20260830220041 82 168 1.7 5.2 0.00 0.00 0.00 78 1007.2
20260830214539 81 157 1.7 4.3 0.00 0.00 0.00 79 1007.2
20260830213038 81 184 3.5 7.8 0.00 0.00 0.00 77 1007.5
20260830211537 82 200 3.5 9.6 0.00 0.00 0.00 76 1007.7
20260830210037 81 211 3.5 9.6 0.00 0.00 0.00 77 1007.7
20260830204540 82 164 3.5 9.6 0.00 0.00 0.00 74 1007.7
20260830203036 82 176 2.6 7.0 0.00 0.00 0.00 74 1007.7
20260830201534 82 259 2.6 8.7 0.00 0.00 0.00 74 1007.7
20260830200044 83 186 2.6 7.8 0.00 0.00 0.00 76 1007.8
20260830194532 83 179 4.3 7.8 0.00 0.00 0.00 74 1007.7
20260830193032 83 198 3.5 9.6 0.00 0.00 0.00 72 1007.9
20260830191531 84 195 4.3 8.7 0.00 0.00 0.00 71 1007.8
20260830190042 84 154 3.5 8.7 0.00 0.00 0.00 73 1007.9
20260830184528 83 257 4.3 9.6 0.00 0.00 0.00 74 1007.9
20260830183028 83 240 2.6 7.8 0.00 0.00 0.00 75 1008.0
20260830181527 82 198 2.6 8.7 0.00 0.00 0.00 75 1008.0
20260830180029 82 210 3.5 9.6 0.00 0.00 0.00 75 1007.8
20260830174526 83 224 2.6 6.1 0.00 0.00 0.00 73 1007.8
20260830173024 83 157 1.7 4.3 0.00 0.00 0.00 76 1007.9
20260830171522 83 205 2.6 6.1 0.00 0.00 0.00 76 1008.0
20260830170019 81 200 0.0 3.5 0.00 0.00 0.00 79 1008.0
20260830164516 80 229 1.7 6.1 0.00 0.00 0.00 79 1008.3
20260830163013 79 203 3.5 7.0 0.00 0.00 0.00 81 1008.7
20260830161511 78 244 3.5 7.8 0.00 0.00 0.00 81 1009.2
20260830160009 78 226 1.7 7.8 0.00 0.00 0.00 83 1009.2
20260830154509 78 242 3.5 7.8 0.00 0.01 0.00 82 1008.9
20260830153007 78 180 1.7 7.0 0.00 0.01 0.00 82 1008.4
20260830151504 77 234 1.7 8.7 0.00 0.01 0.00 83 1008.2
20260830150007 77 198 1.7 8.7 0.00 0.01 0.00 84 1007.9
20260830144501 76 234 1.7 5.2 0.00 0.01 0.00 85 1007.9
20260830143105 75 245 1.7 5.2 0.00 0.01 0.00 85 1007.8
20260830141551 75 205 2.6 7.0 0.00 0.01 0.00 85 1007.6
20260830140047 74 210 1.7 5.2 0.00 0.01 0.00 87 1007.7
20260830134545 73 200 1.7 3.5 0.00 0.01 0.00 90 1007.9
20260830133038 72 196 0.0 0.0 0.00 0.01 0.00 92 1008.1